Time,TemperatureF,DewpointF,PressureIn,WindDirection,WindDirectionDegrees,WindSpeedMPH,WindSpeedGustMPH,Humidity,HourlyPrecipIn,Conditions,Clouds,dailyrainin,SoftwareType,DateUTC
2013-04-21 00:22:00,70.0,-99.9,-100.00,SSE,147,6.0,11.0,-999,-99.99,,,-99.99,,2013-04-21 07:22:00,
2013-04-21 00:32:00,70.0,-99.9,-100.00,SSE,147,6.0,11.0,-999,-99.99,,,-99.99,,2013-04-21 07:32:00,
2013-04-21 01:22:00,66.0,-99.9,-100.00,NE,46,4.0,11.0,-999,-99.99,,,-99.99,,2013-04-21 08:22:00,
2013-04-21 01:32:00,66.0,-99.9,-100.00,East,87,2.0,6.0,-999,-99.99,,,-99.99,,2013-04-21 08:32:00,
2013-04-21 01:42:00,66.0,-99.9,-100.00,East,87,2.0,6.0,-999,-99.99,,,-99.99,,2013-04-21 08:42:00,
2013-04-21 01:52:00,66.0,-99.9,-100.00,SSW,195,9.0,11.0,-999,-99.99,,,-99.99,,2013-04-21 08:52:00,
2013-04-21 02:02:00,66.0,-99.9,-100.00,SSW,195,9.0,11.0,-999,-99.99,,,-99.99,,2013-04-21 09:02:00,
2013-04-21 02:12:00,66.0,-99.9,-100.00,SSW,195,9.0,11.0,-999,-99.99,,,-99.99,,2013-04-21 09:12:00,
2013-04-21 02:22:00,65.0,-99.9,-100.00,East,87,4.0,8.0,-999,-99.99,,,-99.99,,2013-04-21 09:22:00,
2013-04-21 02:30:00,66.0,-99.9,-100.00,South,176,8.0,9.0,-999,-99.99,,,-99.99,,2013-04-21 09:30:00,
2013-04-21 02:33:00,65.0,-99.9,-100.00,East,87,4.0,8.0,-999,-99.99,,,-99.99,,2013-04-21 09:33:00,
2013-04-21 02:53:00,65.0,-99.9,-100.00,NNE,24,6.0,6.0,-999,-99.99,,,-99.99,,2013-04-21 09:53:00,
2013-04-21 03:03:00,66.0,-99.9,-100.00,South,176,8.0,9.0,-999,-99.99,,,-99.99,,2013-04-21 10:03:00,
2013-04-21 03:12:00,66.0,-99.9,-100.00,South,176,8.0,9.0,-999,-99.99,,,-99.99,,2013-04-21 10:12:00,
2013-04-21 03:22:00,66.0,-99.9,-100.00,South,176,8.0,9.0,-999,-99.99,,,-99.99,,2013-04-21 10:22:00,
2013-04-21 03:52:00,63.0,-99.9,-100.00,NNE,20,10.0,10.0,-999,-99.99,,,-99.99,,2013-04-21 10:52:00,
2013-04-21 04:03:00,61.0,-99.9,-100.00,NNE,19,7.0,8.0,-999,-99.99,,,-99.99,,2013-04-21 11:03:00,
2013-04-21 04:12:00,61.0,-99.9,-100.00,NNE,19,7.0,8.0,-999,-99.99,,,-99.99,,2013-04-21 11:12:00,
2013-04-21 04:22:00,61.0,-99.9,-100.00,NNE,19,7.0,8.0,-999,-99.99,,,-99.99,,2013-04-21 11:22:00,
2013-04-21 04:34:00,61.0,-99.9,-100.00,SE,132,4.0,10.0,-999,-99.99,,,-99.99,,2013-04-21 11:34:00,
2013-04-21 04:42:00,61.0,-99.9,-100.00,SE,132,4.0,10.0,-999,-99.99,,,-99.99,,2013-04-21 11:42:00,
2013-04-21 05:30:00,61.0,-99.9,-100.00,NNE,17,6.0,9.0,-999,-99.99,,,-99.99,,2013-04-21 12:30:00,
2013-04-21 05:32:00,62.0,-99.9,-100.00,NE,41,7.0,12.0,-999,-99.99,,,-99.99,,2013-04-21 12:32:00,
2013-04-21 05:42:00,62.0,-99.9,-100.00,NE,41,7.0,12.0,-999,-99.99,,,-99.99,,2013-04-21 12:42:00,
2013-04-21 05:52:00,62.0,-99.9,-100.00,ESE,121,3.0,9.0,-999,-99.99,,,-99.99,,2013-04-21 12:52:00,
2013-04-21 06:02:00,62.0,-99.9,-100.00,SSW,198,6.0,9.0,-999,-99.99,,,-99.99,,2013-04-21 13:02:00,
2013-04-21 06:10:00,60.0,-99.9,-100.00,NNE,29,11.0,11.0,-999,-99.99,,,-99.99,,2013-04-21 13:10:00,
2013-04-21 06:12:00,62.0,-99.9,-100.00,SSW,198,6.0,9.0,-999,-99.99,,,-99.99,,2013-04-21 13:12:00,
2013-04-21 06:22:00,61.0,-99.9,-100.00,NNE,17,6.0,9.0,-999,-99.99,,,-99.99,,2013-04-21 13:22:00,
2013-04-21 06:52:00,60.0,-99.9,-100.00,NNE,29,11.0,11.0,-999,-99.99,,,-99.99,,2013-04-21 13:52:00,
2013-04-21 07:02:00,60.0,-99.9,-100.00,NNE,29,11.0,11.0,-999,-99.99,,,-99.99,,2013-04-21 14:02:00,
2013-04-21 08:02:00,68.0,-99.9,-100.00,SSW,208,4.0,7.0,-999,-99.99,,,-99.99,,2013-04-21 15:02:00,
2013-04-21 08:12:00,68.0,-99.9,-100.00,SSW,208,4.0,7.0,-999,-99.99,,,-99.99,,2013-04-21 15:12:00,
2013-04-21 08:22:00,68.0,-99.9,-100.00,SSW,208,4.0,7.0,-999,-99.99,,,-99.99,,2013-04-21 15:22:00,
2013-04-21 08:33:00,72.0,-99.9,-100.00,NNE,15,10.0,10.0,-999,-99.99,,,-99.99,,2013-04-21 15:33:00,
2013-04-21 08:43:00,72.0,-99.9,-100.00,NNE,15,10.0,10.0,-999,-99.99,,,-99.99,,2013-04-21 15:43:00,
2013-04-21 09:33:00,76.0,-99.9,-100.00,WNW,284,7.0,8.0,-999,-99.99,,,-99.99,,2013-04-21 16:33:00,
2013-04-21 09:42:00,76.0,-99.9,-100.00,WNW,284,7.0,8.0,-999,-99.99,,,-99.99,,2013-04-21 16:42:00,
2013-04-21 10:23:00,77.0,-99.9,-100.00,WSW,250,8.0,9.0,-999,-99.99,,,-99.99,,2013-04-21 17:23:00,
2013-04-21 10:32:00,77.0,-99.9,-100.00,WSW,250,8.0,9.0,-999,-99.99,,,-99.99,,2013-04-21 17:32:00,
2013-04-21 10:50:00,80.0,-99.9,-100.00,SW,228,4.0,12.0,-999,-99.99,,,-99.99,,2013-04-21 17:50:00,
2013-04-21 10:53:00,79.0,-99.9,-100.00,West,270,8.0,11.0,-999,-99.99,,,-99.99,,2013-04-21 17:53:00,
2013-04-21 11:02:00,79.0,-99.9,-100.00,West,270,8.0,11.0,-999,-99.99,,,-99.99,,2013-04-21 18:02:00,
2013-04-21 11:11:00,79.0,-99.9,-100.00,West,270,8.0,11.0,-999,-99.99,,,-99.99,,2013-04-21 18:11:00,
2013-04-21 12:22:00,81.0,-99.9,-100.00,WSW,241,6.0,11.0,-999,-99.99,,,-99.99,,2013-04-21 19:22:00,
2013-04-21 12:30:00,83.0,-99.9,-100.00,SW,223,14.0,14.0,-999,-99.99,,,-99.99,,2013-04-21 19:30:00,
2013-04-21 12:32:00,83.0,-99.9,-100.00,SW,219,5.0,12.0,-999,-99.99,,,-99.99,,2013-04-21 19:32:00,
2013-04-21 12:43:00,83.0,-99.9,-100.00,SW,219,5.0,12.0,-999,-99.99,,,-99.99,,2013-04-21 19:43:00,
2013-04-21 12:52:00,83.0,-99.9,-100.00,SW,224,12.0,12.0,-999,-99.99,,,-99.99,,2013-04-21 19:52:00,
2013-04-21 13:02:00,83.0,-99.9,-100.00,SW,223,14.0,14.0,-999,-99.99,,,-99.99,,2013-04-21 20:02:00,
2013-04-21 13:12:00,83.0,-99.9,-100.00,SW,223,14.0,14.0,-999,-99.99,,,-99.99,,2013-04-21 20:12:00,
2013-04-21 13:22:00,83.0,-99.9,-100.00,SW,223,14.0,14.0,-999,-99.99,,,-99.99,,2013-04-21 20:22:00,
2013-04-21 13:50:00,86.0,-99.9,-100.00,WSW,256,12.0,13.0,-999,-99.99,,,-99.99,,2013-04-21 20:50:00,
2013-04-21 14:22:00,86.0,-99.9,-100.00,SW,233,10.0,12.0,-999,-99.99,,,-99.99,,2013-04-21 21:22:00,
2013-04-21 14:33:00,86.0,-99.9,-100.00,WSW,256,12.0,13.0,-999,-99.99,,,-99.99,,2013-04-21 21:33:00,
2013-04-21 14:43:00,86.0,-99.9,-100.00,WSW,256,12.0,13.0,-999,-99.99,,,-99.99,,2013-04-21 21:43:00,
2013-04-21 15:03:00,87.0,-99.9,-100.00,SW,231,8.0,16.0,-999,-99.99,,,-99.99,,2013-04-21 22:03:00,
2013-04-21 15:12:00,87.0,-99.9,-100.00,SW,231,8.0,16.0,-999,-99.99,,,-99.99,,2013-04-21 22:12:00,
2013-04-21 15:33:00,87.0,-99.9,-100.00,West,260,13.0,16.0,-999,-99.99,,,-99.99,,2013-04-21 22:33:00,
2013-04-21 15:43:00,87.0,-99.9,-100.00,West,260,13.0,16.0,-999,-99.99,,,-99.99,,2013-04-21 22:43:00,
2013-04-21 15:53:00,87.0,-99.9,-100.00,West,260,13.0,16.0,-999,-99.99,,,-99.99,,2013-04-21 22:53:00,
2013-04-21 17:52:00,88.0,-99.9,-100.00,SSW,202,9.0,12.0,-999,-99.99,,,-99.99,,2013-04-22 00:52:00,
2013-04-21 18:02:00,88.0,-99.9,-100.00,SSW,202,9.0,12.0,-999,-99.99,,,-99.99,,2013-04-22 01:02:00,
2013-04-21 18:22:00,87.0,-99.9,-100.00,WSW,240,14.0,15.0,-999,-99.99,,,-99.99,,2013-04-22 01:22:00,
2013-04-21 18:32:00,87.0,-99.9,-100.00,WSW,240,14.0,15.0,-999,-99.99,,,-99.99,,2013-04-22 01:32:00,
2013-04-21 18:42:00,87.0,-99.9,-100.00,WSW,240,14.0,15.0,-999,-99.99,,,-99.99,,2013-04-22 01:42:00,
2013-04-21 19:02:00,86.0,-99.9,-100.00,WSW,241,10.0,15.0,-999,-99.99,,,-99.99,,2013-04-22 02:02:00,
2013-04-21 19:12:00,86.0,-99.9,-100.00,WSW,241,10.0,15.0,-999,-99.99,,,-99.99,,2013-04-22 02:12:00,
2013-04-21 19:22:00,85.0,-99.9,-100.00,WSW,245,11.0,13.0,-999,-99.99,,,-99.99,,2013-04-22 02:22:00,
2013-04-21 19:32:00,85.0,-99.9,-100.00,SW,227,7.0,12.0,-999,-99.99,,,-99.99,,2013-04-22 02:32:00,
2013-04-21 19:42:00,85.0,-99.9,-100.00,SW,227,7.0,12.0,-999,-99.99,,,-99.99,,2013-04-22 02:42:00,
2013-04-21 19:52:00,83.0,-99.9,-100.00,WSW,238,10.0,13.0,-999,-99.99,,,-99.99,,2013-04-22 02:52:00,
2013-04-21 20:00:00,78.0,-99.9,-100.00,WSW,245,7.0,9.0,-999,-99.99,,,-99.99,,2013-04-22 03:00:00,
2013-04-21 20:02:00,83.0,-99.9,-100.00,WSW,238,10.0,13.0,-999,-99.99,,,-99.99,,2013-04-22 03:02:00,
2013-04-21 20:22:00,80.0,-99.9,-100.00,WSW,258,9.0,10.0,-999,-99.99,,,-99.99,,2013-04-22 03:22:00,
2013-04-21 20:33:00,80.0,-99.9,-100.00,WSW,258,9.0,10.0,-999,-99.99,,,-99.99,,2013-04-22 03:33:00,
2013-04-21 20:43:00,80.0,-99.9,-100.00,WSW,258,9.0,10.0,-999,-99.99,,,-99.99,,2013-04-22 03:43:00,
2013-04-21 20:53:00,78.0,-99.9,-100.00,WSW,245,7.0,9.0,-999,-99.99,,,-99.99,,2013-04-22 03:53:00,
2013-04-21 21:10:00,74.0,-99.9,-100.00,SSW,199,10.0,16.0,-999,-99.99,,,-99.99,,2013-04-22 04:10:00,
2013-04-21 21:53:00,74.0,-99.9,-100.00,SSW,199,10.0,16.0,-999,-99.99,,,-99.99,,2013-04-22 04:53:00,
2013-04-21 22:00:00,73.0,-99.9,-100.00,South,190,11.0,11.0,-999,-99.99,,,-99.99,,2013-04-22 05:00:00,
2013-04-21 22:03:00,74.0,-99.9,-100.00,SSW,199,10.0,16.0,-999,-99.99,,,-99.99,,2013-04-22 05:03:00,
2013-04-21 22:23:00,73.0,-99.9,-100.00,SW,223,3.0,8.0,-999,-99.99,,,-99.99,,2013-04-22 05:23:00,
2013-04-21 22:33:00,73.0,-99.9,-100.00,South,190,11.0,11.0,-999,-99.99,,,-99.99,,2013-04-22 05:33:00,
2013-04-21 22:42:00,73.0,-99.9,-100.00,South,190,11.0,11.0,-999,-99.99,,,-99.99,,2013-04-22 05:42:00,
2013-04-21 22:52:00,73.0,-99.9,-100.00,South,190,11.0,11.0,-999,-99.99,,,-99.99,,2013-04-22 05:52:00,
2013-04-21 23:32:00,72.0,-99.9,-100.00,SSW,198,7.0,8.0,-999,-99.99,,,-99.99,,2013-04-22 06:32:00,
2013-04-21 23:42:00,72.0,-99.9,-100.00,SSW,198,7.0,8.0,-999,-99.99,,,-99.99,,2013-04-22 06:42:00,
2013-04-21 23:52:00,72.0,-99.9,-100.00,SSW,198,7.0,8.0,-999,-99.99,,,-99.99,,2013-04-22 06:52:00,